OpenBCM V1.08-5-g2f4a (Linux)

Packet Radio Mailbox

IZ3LSV

[San Dona' di P. JN]

 Login: GUEST





  
LU9DCE > KEP      19.12.19 17:15l 244 Lines 12055 Bytes #999 (0) @ WW
BID : 5448_LU9DCE
Read: GUEST
Subj: TLE 19 12
Path: IZ3LSV<IK6IHL<IK7NXU<HB9ON<IW2OHX<IR1UAW<IQ5KG<I0OJJ<EA2RCF<LU9DCE
Sent: 191219/1600Z 5448@LU9DCE.TOR.BA.ARG.SOAM LinBPQ6.0.19

            __    _  _  ___  ____   ___  ____    ____  ____  ____
           (  )  / )( \/ _ \(    \ / __)(  __)  (  _ \(  _ \/ ___)
           / (_/\) \/ (\__  )) D (( (__  ) _)    ) _ ( ) _ (\___ \
           \____/\____/(___/(____/ \___)(____)  (____/(____/(____/
               ESTACION DE PACKET RADIO - BUENOS AIRES (GF05OM)
                   BOLETINES INFORMATIVOS PROGRAMADOS (BIP)
                      LINUX - HELLOCODELINUX@GMAIL.COM
+----------------------------------------------------------------------------+
OSCAR 7
1  7530U 74089B   19353.42165427 -.00000020  00000-0  15890-3 0  9994
2  7530 101.7734 319.3765 0012302 354.0545 123.0812 12.53641286 63541
OSCAR 11 (UoSAT 2)
1 14781U 84021B   19352.80697739  .00000057  00000-0  13065-4 0  9996
2 14781  97.5990   8.7391 0009973  80.3567 279.8774 14.83128510925909
OSCAR 19 (LUSAT)
1 20442U 90005G   19353.17395922 -.00000003  00000-0  15157-4 0  9992
2 20442  98.6706 295.0349 0011303 333.9504  26.1110 14.32940702562654
EYESAT A
1 22825U 93061C   19353.02169520 -.00000011  00000-0  13862-4 0  9991
2 22825  98.9169 345.9707 0008383 178.3931 181.7278 14.30073664368153
ITAMSAT
1 22826U 93061D   19352.70081238 -.00000008 +00000-0 +14969-4 0  9990
2 22826 098.9108 345.6108 0009092 168.3641 191.7752 14.30408154368068
RADIO ROSTO
1 23439U 94085A   19352.83915099 -.00000034 +00000-0 +22896-3 0  9999
2 23439 064.8125 179.9502 0145929 077.3467 284.3728 11.27569388028549
JAS 2
1 24278U 96046B   19353.37587111 -.00000041  00000-0 -80192-5 0  9994
2 24278  98.5636 122.1213 0351133 123.8134 239.6961 13.53094953152648
TECHSAT 1B
1 25397U 98043D   19353.12242123 -.00000001  00000-0  18705-4 0  9995
2 25397  98.7093 291.1937 0000857 168.2809 191.8389 14.23676267113974
ISS (ZARYA)
1 25544U 98067A   19353.61104882 -.00000501  00000-0 -69137-6 0  9991
2 25544  51.6431 162.0578 0007623  52.7416 351.8917 15.50119784204027
PCSAT
1 26931U 01043C   19353.16445827 -.00000040  00000-0  16471-4 0  9995
2 26931  67.0513 250.2255 0007058 263.9994  96.0302 14.30562002951219
SAUDISAT 1C
1 27607U 02058C   19353.01054897 -.00000053  00000-0  13398-4 0  9999
2 27607  64.5539 209.1166 0069298 220.3055 139.2900 14.75595900914083
CUTE-1
1 27844U 03031E   19352.85367546  .00000039  00000-0  37306-4 0  9991
2 27844  98.6835 358.3243 0009228 216.3969 143.6582 14.22211389854325
CUBESAT XI 4
1 27848U 03031J   19353.25004393  .00000026  00000-0  31703-4 0  9999
2 27848  98.6909 359.2497 0008964 227.8808 132.1608 14.21802093854225
MOZHAYETS 4
1 27939U 03042A   19353.41352283  .00000092  00000-0  25194-4 0  9994
2 27939  98.0657 125.9454 0012442 201.3369 158.7329 14.66824827867479
CUBESAT XI 5
1 28895U 05043F   19353.33192717  .00000109  00000-0  29844-4 0  9999
2 28895  97.9838 130.0685 0017838 129.7633 230.5144 14.63721694754344
CUTE-1.7+APD II
1 32785U 08021C   19353.22408811  .00000223  00000-0  29614-4 0  9996
2 32785  97.5595 344.3816 0013533  20.7116 339.4647 14.88390900630982
DELFI C3
1 32789U 08021G   19353.39488741  .00001128  00000-0  78624-4 0  9998
2 32789  97.4430  37.3237 0011489 209.9756 150.0816 15.07333341634637
SEEDS
1 32791U 08021J   19353.06621677  .00000350  00000-0  40782-4 0  9992
2 32791  97.5327 350.3453 0013094 353.8133   6.2922 14.90934597631432
YUBELEINY
1 32953U 08025A   19353.46972290  .00000037  00000-0  19437-3 0  9994
2 32953  82.5050  30.4705 0020380  89.6837 270.6573 12.43093036525145
PRISM (HITOMI)
1 33493U 09002B   19352.90647764  .00000400  00000-0  40436-4 0  9991
2 33493  98.1310 280.8649 0013897 300.8319  59.1533 14.96848862592553
KKS-1 (KISEKI)
1 33499U 09002H   19352.84563189 +.00000070 +00000-0 +18363-4 0  9995
2 33499 098.3334 197.2706 0008901 351.4649 008.6406 14.75488972585807
SWISSCUBE
1 35932U 09051B   19353.45636246  .00000105  00000-0  34745-4 0  9997
2 35932  98.5996 165.0039 0006975 328.9429  31.1354 14.56340745543523
BEESAT
1 35933U 09051C   19352.76149556  .00000089  00000-0  31128-4 0  9997
2 35933  98.6009 166.1153 0005467 348.0258  12.0808 14.56422777543536
ITUPSAT 1
1 35935U 09051E   19353.40633550  .00000088  00000-0  31436-4 0  9994
2 35935  98.6117 167.0024 0007670 340.8441  19.2466 14.55575731543365
XIWANG-1 (HOPE-1)
1 36122U 09072B   19353.21083108 -.00000054  00000-0 -31038-4 0  9996
2 36122 100.0808 347.0141 0006932 282.0120  78.0215 13.16352287481024
TISAT 1
1 36799U 10035E   19353.00732619  .00000397  00000-0  46032-4 0  9990
2 36799  98.1750 151.5217 0011875 199.4862 160.5903 14.91228712512086
JUGNU
1 37839U 11058B   19353.26299367  .00000304  00000-0  20001-4 0  9994
2 37839  19.9620 301.5696 0018969 190.1737 318.6941 14.12667099423242
SRMSAT
1 37841U 11058D   19353.43558225  .00000312  00000-0  26333-4 0  9990
2 37841  19.9735   1.0989 0012050  55.7996  99.4200 14.10645969422675
M-CUBED/EXP-1 PRIME
1 37855U 11061F   19353.01327417  .00000839  00000-0  49705-4 0  9992
2 37855 101.7258 342.8425 0172113 253.2563 104.9702 15.05886109444360
HORYU 2
1 38340U 12025D   19353.11762171  .00000130  00000-0  26960-4 0  9996
2 38340  98.3075  36.9981 0010305 257.9026 102.1028 14.75788613408217
STRAND 1
1 39090U 13009E   19352.80583113 +.00000019 +00000-0 +21644-4 0  9994
2 39090 098.4688 195.5366 0010235 103.1564 257.0764 14.35110435356633
SOMP
1 39134U 13015E   19353.41022783  .00001247  00000-0  65101-4 0  9999
2 39134  64.8620 145.0479 0038033 272.9567  86.7209 15.20584453368526
BEESAT 3
1 39135U 13015F   19352.93792328  .00000816  00000-0  49344-4 0  9997
2 39135  64.8647 167.4834 0042998 276.0544  83.5684 15.17795151368059
BEESAT 2
1 39136U 13015G   19352.78133358  .00000855  00000-0  52378-4 0  9997
2 39136  64.8688 172.3590 0030748 282.3754  77.3931 15.17217929367947
CUBEBUG 1
1 39153U 13018D   19353.24650161  .00000178  00000-0  30091-4 0  9993
2 39153  97.9819  90.3852 0016070 327.4675  32.5546 14.80640635358975
ZACUBE
1 39417U 13066B   19353.45902685  .00000184  00000-0  29374-4 0  9992
2 39417  97.5611 356.6201 0059633 150.2114 210.2516 14.81193988328246
TRITON 1
1 39427U 13066M   19353.16470725  .00000153  00000-0  32743-4 0  9996
2 39427  97.7009 319.4481 0112529 298.5304  60.4610 14.67920721325253
GOMX 1
1 39430U 13066Q   19353.38473992  .00000223  00000-0  49038-4 0  9996
2 39430  97.7713 298.0620 0152008  35.4898 325.6301 14.59325738323392
HUMSAT D
1 39433U 13066T   19353.07471875  .00000475  00000-0  51316-4 0  9994
2 39433  97.5314  32.8640 0031772  50.6841 309.7188 14.92330024330426
CUBEBUG 2
1 39440U 13066AA  19353.48145164  .00000150  00000-0  27895-4 0  9991
2 39440  97.6145 341.1865 0079472 207.0561 152.6497 14.75932009327086
FUNCUBE 1
1 39444U 13066AE  19353.01968047  .00000244  00000-0  36107-4 0  9997
2 39444  97.5574 358.3155 0058881 144.7814 215.7313 14.82029121327084
UWE-3
1 39446U 13066AG  19352.96787033  .00000164  00000-0  28425-4 0  9991
2 39446  97.5872 347.8759 0069924 180.8018 179.3093 14.78466005326346
SPROUT
1 39770U 14029E   19353.34937826  .00000717  00000-0  85097-4 0  9993
2 39770  97.8905  95.5492 0008571 196.0636 164.0305 14.87545564302139
UNISAT 6
1 40012U 14033C   19353.36829393  .00000145  00000-0  28985-4 0  9998
2 40012  97.7308 211.8080 0057276 224.2321 135.4302 14.74045908295743
DUCHIFAT 1
1 40021U 14033M   19353.06209729  .00000351  00000-0  41552-4 0  9994
2 40021  97.9327 278.3181 0013156 159.5848 200.5898 14.90765236298860
QB50P1
1 40025U 14033R   19353.02471088  .00000189  00000-0  26088-4 0  9999
2 40025  97.9102 272.4204 0012514 169.9789 190.1680 14.89039414298607
CHUBUSAT 1
1 40300U 14070C   19353.44819727  .00000618  00000-0  29652-4 0  9995
2 40300  97.3110  62.8231 0021110 127.2628 243.7276 15.22292913283971
NUDT-PHONESAT
1 40900U 15049B   19353.54104512  .00001727  00000-0  75500-4 0  9993
2 40900  97.4350   1.1185 0011002 259.0766 220.5809 15.23406447235640
ZDPS 2A
1 40901U 15049C   19353.41361213  .00000810  00000-0  43135-4 0  9994
2 40901  97.4606 356.6220 0011853 286.9655 183.4156 15.17984619235101
ZDPS 2B
1 40902U 15049D   19353.39546949  .00001102  00000-0  57647-4 0  9991
2 40902  97.4578 353.9589 0011890 284.0067 213.3824 15.17892801235077
XW-2A
1 40903U 15049E   19353.41934273  .00001581  00000-0  38477-4 0  9997
2 40903  97.3148  37.0324 0012841 192.7700 292.9328 15.42433377238569
KAITUO 1A
1 40904U 15049F   19353.43556128  .00000281  00000-0  18328-4 0  9998
2 40904  97.4717 352.3662 0013169 294.7213 203.0449 15.15538306234827
OBJECT G
1 40905U 15049G   19353.45330456  .00000278  00000-0  18725-4 0  9992
2 40905  97.4777 349.7491 0014205 289.6805 226.0564 15.14417649234688
XW-2C
1 40906U 15049H   19353.39251057  .00000640  00000-0  36888-4 0  9998
2 40906  97.4721 352.4965 0013199 284.4169 183.3829 15.15864942234820
XW-2D
1 40907U 15049J   19353.48649277  .00000652  00000-0  37286-4 0  9990
2 40907  97.4705 352.2744 0012533 281.0930 230.2577 15.16070776234856
LILACSAT 2
1 40908U 15049K   19353.41711986  .00000235  00000-0  16600-4 0  9995
2 40908  97.4845 350.8098 0014488 291.2167 176.7782 15.13915108234603
XW-2F
1 40910U 15049M   19353.46848711  .00000951  00000-0  50615-4 0  9999
2 40910  97.4653 354.5477 0013047 271.9990 242.9755 15.17601193234880
XW-2B
1 40911U 15049N   19353.46244573  .00000615  00000-0  35455-4 0  9998
2 40911  97.4719 352.9312 0012548 282.1381 233.1262 15.15999495234740
KAITUO 1B
1 40912U 15049P   19353.40715929  .00001043  00000-0  51624-4 0  9993
2 40912  97.4489 358.4140 0013219 249.7036 218.1853 15.19951004235217
TIANWANG 1C (TW-1C)
1 40926U 15051B   19353.53224961  .00011334  00000-0  14268-3 0  9992
2 40926  97.1124  39.6753 0008607  54.9336  51.0248 15.59760870238776
